This is the latest recevied weather packets stored in our database for station/object KI5NXU. If no packets are shown the sender has not sent any weather packets the latest 10 day(s).
| Time | Temp. | Humidity | Pressure | Rain* | Wind** | Luminosity | Snow |
|---|---|---|---|---|---|---|---|
| 1778123024 | 12.78° C | 84% | 1015.7 hPa | 0 mm | - | 0 W/m² | - |
| 1778122720 | 13.33° C | 83% | 1015.8 hPa | 0 mm | - | 0 W/m² | - |
| 1778122418 | 13.33° C | 82% | 1015.4 hPa | 0 mm | - | 0 W/m² | - |
| 1778122115 | 13.89° C | 81% | 1015.7 hPa | 0 mm | - | 0 W/m² | - |
| 1778121812 | 13.89° C | 79% | 1015.6 hPa | 0 mm | - | 0 W/m² | - |
| 1778121508 | 13.89° C | 79% | 1015.5 hPa | 0 mm | - | 0 W/m² | - |
| 1778121205 | 13.89° C | 79% | 1015.4 hPa | 0 mm | - | 0 W/m² | - |
| 1778120902 | 14.44° C | 78% | 1015.5 hPa | 0 mm | - | 0 W/m² | - |
| 1778120599 | 14.44° C | 78% | 1015.3 hPa | 0 mm | - | 0 W/m² | - |
| 1778120289 | 15° C | 77% | 1015.3 hPa | 0 mm | - | 0 W/m² | - |
| 1778119985 | 15° C | 76% | 1015.5 hPa | 0 mm | - | 0 W/m² | - |
| 1778119683 | 15° C | 76% | 1015.1 hPa | 0 mm | - | 0 W/m² | - |
| 1778119379 | 15° C | 75% | 1015.2 hPa | 0 mm | - | 0 W/m² | - |
| 1778119076 | 15° C | 75% | 1015.2 hPa | 0 mm | - | 0 W/m² | - |
| 1778118774 | 15.56° C | 74% | 1015.4 hPa | 0 mm | - | 0 W/m² | - |
| 1778118471 | 15.56° C | 74% | 1015.3 hPa | 0 mm | - | 0 W/m² | - |
| 1778118167 | 15.56° C | 73% | 1015.2 hPa | 0 mm | - | 0 W/m² | - |
| 1778117864 | 15.56° C | 73% | 1015 hPa | 0 mm | - | 0 W/m² | - |
| 1778117561 | 15.56° C | 73% | 1014.8 hPa | 0 mm | - | 0 W/m² | - |
| 1778117258 | 16.11° C | 72% | 1014.9 hPa | 0 mm | - | 0 W/m² | - |
| 1778116954 | 16.11° C | 71% | 1014.8 hPa | 0 mm | - | 3 W/m² | - |
| 1778116652 | 16.11° C | 72% | 1014.7 hPa | 0 mm | - | 4 W/m² | - |
| 1778116348 | 16.67° C | 71% | 1014.6 hPa | 0 mm | - | 6 W/m² | - |
| 1778116048 | 16.67° C | 70% | 1014.6 hPa | 0 mm | - | 10 W/m² | - |
| 1778115744 | 16.67° C | 69% | 1014.7 hPa | 0 mm | - | 15 W/m² | - |
* Rain latest hour (hover to see other rain measurements)
** Current wind speed in m/s (hover to see current wind gust speed)